Simultaneous Nadir Overpasses (SNOs) Predictions

Prediction of SNOs between GOES-17 and METOP-C Satellite Orbit:

Table of predicted SNOs for the next 14.0 days since TLE Epoch: 6/24/2023
Index Date Time (GOES-17) GOES-17 Lat,Lon METOP-C Lat,Lon Distance(km) Time Diff (sec)
1 06/24/2023 16:30:08 0.01,-104.74 0.13,-105.34 68.89 80
2 06/27/2023 04:31:09 -0.01,-104.71 -0.08,-104.94 26.91 80
3 06/29/2023 16:29:21 0.01,-104.75 -0.04,-104.52 26.26 80
4 07/02/2023 04:25:01 -0.00,-104.71 0.13,-104.12 67.51 80
5 07/03/2023 16:43:53 0.00,-104.74 0.87,-108.69 449.77 80
6 07/04/2023 16:25:53 0.00,-104.73 -0.26,-103.70 119.11 80
7 07/06/2023 04:44:53 -0.00,-104.71 -0.81,-108.28 408.07 80
8 07/07/2023 04:21:33 -0.00,-104.70 0.32,-103.29 160.65 80
